This is the latest recevied weather packets stored in our database for station/object KD0SBN-3. If no packets are shown the sender has not sent any weather packets the latest 10 day(s).
| Time | Temp. | Humidity | Pressure | Rain* | Wind** | Luminosity | Snow |
|---|---|---|---|---|---|---|---|
| 1777943528 | 11.67° C | 22% | 1018.3 hPa | 0 mm | - | 21 W/m² | - |
| 1777943223 | 11.67° C | 22% | 1018.6 hPa | 0 mm | - | 24 W/m² | - |
| 1777942920 | 11.67° C | 22% | 1018.9 hPa | 0 mm | - | 29 W/m² | - |
| 1777942616 | 12.22° C | 21% | 1018.9 hPa | 0 mm | - | 30 W/m² | - |
| 1777942313 | 12.22° C | 22% | 1018.7 hPa | 0 mm | - | 41 W/m² | - |
| 1777942010 | 12.22° C | 22% | 1018.9 hPa | 0 mm | - | 51 W/m² | - |
| 1777941707 | 12.22° C | 22% | 1018.9 hPa | 0 mm | - | 51 W/m² | - |
| 1777941404 | 12.22° C | 22% | 1019.1 hPa | 0 mm | - | 66 W/m² | - |
| 1777941102 | 12.78° C | 22% | 1019.1 hPa | 0 mm | - | 67 W/m² | - |
| 1777940797 | 12.78° C | 22% | 1018.9 hPa | 0 mm | - | 65 W/m² | - |
| 1777940496 | 12.78° C | 23% | 1018.7 hPa | 0 mm | - | 89 W/m² | - |
| 1777940192 | 12.78° C | 22% | 1018.9 hPa | 0 mm | - | 81 W/m² | - |
| 1777939890 | 12.78° C | 23% | 1018.9 hPa | 0 mm | - | 102 W/m² | - |
| 1777939587 | 12.78° C | 23% | 1018.9 hPa | 0 mm | - | 88 W/m² | - |
| 1777939285 | 13.33° C | 23% | 1019.1 hPa | 0 mm | - | 101 W/m² | - |
| 1777938981 | 13.33° C | 23% | 1018.7 hPa | 0 mm | - | 112 W/m² | - |
| 1777938678 | 13.33° C | 24% | 1019 hPa | 0 mm | - | 112 W/m² | - |
| 1777938375 | 13.33° C | 24% | 1019 hPa | 0 mm | - | 106 W/m² | - |
| 1777938072 | 13.33° C | 24% | 1019 hPa | 0 mm | - | 119 W/m² | - |
| 1777937768 | 13.33° C | 24% | 1019 hPa | 0 mm | - | 106 W/m² | - |
| 1777937464 | 13.33° C | 25% | 1018.9 hPa | 0 mm | - | 108 W/m² | - |
| 1777937161 | 13.33° C | 25% | 1019.2 hPa | 0 mm | - | 132 W/m² | - |
| 1777936859 | 13.89° C | 25% | 1019 hPa | 0 mm | - | 108 W/m² | - |
| 1777936555 | 13.89° C | 25% | 1018.7 hPa | 0 mm | - | 150 W/m² | - |
| 1777936251 | 13.33° C | 26% | 1019 hPa | 0 mm | - | 158 W/m² | - |
* Rain latest hour (hover to see other rain measurements)
** Current wind speed in m/s (hover to see current wind gust speed)